This is the latest recevied weather packets stored in our database for station/object AE5HO. If no packets are shown the sender has not sent any weather packets the latest 10 day(s).
| Time | Temp. | Humidity | Pressure | Rain* | Wind** | Luminosity | Snow |
|---|---|---|---|---|---|---|---|
| 1777585085 | 17.22° C | 78% | 1014.2 hPa | 0 mm | - | 10 W/m² | - |
| 1777584781 | 17.22° C | 77% | 1014.2 hPa | 0 mm | - | 13 W/m² | - |
| 1777584479 | 17.22° C | 78% | 1014.2 hPa | 0 mm | - | 17 W/m² | - |
| 1777584176 | 17.22° C | 77% | 1014.3 hPa | 0 mm | - | 21 W/m² | - |
| 1777583875 | 17.22° C | 77% | 1014 hPa | 0 mm | - | 29 W/m² | - |
| 1777583571 | 17.22° C | 78% | 1013.9 hPa | 0 mm | - | 31 W/m² | - |
| 1777583270 | 17.22° C | 78% | 1014.5 hPa | 0 mm | - | 27 W/m² | - |
| 1777582970 | 16.67° C | 78% | 1014.1 hPa | 0 mm | - | 27 W/m² | - |
| 1777582668 | 16.67° C | 78% | 1014.2 hPa | 0 mm | - | 23 W/m² | - |
| 1777582363 | 16.67° C | 78% | 1014.3 hPa | 0 mm | - | 21 W/m² | - |
| 1777582061 | 16.67° C | 77% | 1014.2 hPa | 0 mm | - | 26 W/m² | - |
| 1777581756 | 16.67° C | 78% | 1013.8 hPa | 0 mm | - | 28 W/m² | - |
| 1777581455 | 16.67° C | 79% | 1013.8 hPa | 0 mm | - | 33 W/m² | - |
| 1777581150 | 16.67° C | 79% | 1013.9 hPa | 0 mm | - | 31 W/m² | - |
| 1777580845 | 16.67° C | 80% | 1014.1 hPa | 0 mm | - | 24 W/m² | - |
| 1777580540 | 16.67° C | 80% | 1014 hPa | 0 mm | - | 18 W/m² | - |
| 1777580236 | 16.67° C | 80% | 1013.7 hPa | 0 mm | - | 24 W/m² | - |
| 1777579934 | 16.67° C | 80% | 1013.8 hPa | 0 mm | - | 21 W/m² | - |
| 1777579628 | 16.67° C | 80% | 1014.1 hPa | 0 mm | - | 20 W/m² | - |
| 1777579327 | 16.67° C | 80% | 1014.2 hPa | 0 mm | - | 18 W/m² | - |
| 1777579023 | 16.67° C | 81% | 1014.6 hPa | 0 mm | - | 17 W/m² | - |
| 1777578718 | 16.67° C | 81% | 1014.7 hPa | 0 mm | - | 17 W/m² | - |
| 1777578418 | 16.67° C | 81% | 1014.6 hPa | 0 mm | - | 18 W/m² | - |
| 1777578113 | 16.67° C | 82% | 1014.4 hPa | 0 mm | - | 16 W/m² | - |
| 1777577810 | 16.67° C | 82% | 1014.3 hPa | 0 mm | - | 21 W/m² | - |
* Rain latest hour (hover to see other rain measurements)
** Current wind speed in m/s (hover to see current wind gust speed)